Precipitable_Water
1.32 1.36 1.34 1.27 1.18 1.16 1.17 1.10 1.13 1.15 1.15 1.18 1.21 1.19 1.12 1.08 1.08 1.06 1.06 1.04 1.03 1.02 1.00 0.97 0.94 0.95 0.96 0.93 0.94 1.00 1.05 1.05 1.06 1.14 1.23 1.28 1.27 1.22 1.18 1.19 1.19 1.18 1.13
1.34 1.35 1.33 1.29 1.22 1.19 1.21 1.18 1.16 1.18 1.19 1.21 1.19 1.16 1.10 1.07 1.05 1.06 1.07 1.05 1.02 1.03 1.01 0.97 0.93 0.92 0.93 0.94 0.95 1.00 1.06 1.07 1.08 1.13 1.18 1.25 1.24 1.23 1.20 1.16 1.13 1.13 1.13
1.30 1.37 1.34 1.26 1.23 1.19 1.19 1.18 1.20 1.22 1.23 1.23 1.20 1.17 1.11 1.05 1.03 1.07 1.08 1.04 1.03 1.04 1.03 0.98 0.95 0.93 0.92 0.92 0.95 1.00 1.05 1.12 1.12 1.11 1.15 1.22 1.34 1.38 1.36 1.29 1.25 1.20 1.18
1.26 1.32 1.31 1.28 1.26 1.22 1.21 1.22 1.26 1.29 1.29 1.27 1.27 1.21 1.14 1.10 1.08 1.12 1.15 1.15 1.12 1.09 1.06 0.97 0.95 0.92 0.92 0.93 0.94 0.98 1.06 1.14 1.22 1.24 1.27 1.31 1.42 1.44 1.48 1.40 1.36 1.35 1.37
1.21 1.29 1.30 1.30 1.27 1.28 1.28 1.28 1.28 1.31 1.32 1.31 1.29 1.23 1.19 1.16 1.14 1.16 1.19 1.14 1.11 1.11 1.09 1.02 0.96 0.94 0.95 0.96 0.96 0.98 1.04 1.13 1.23 1.26 1.33 1.32 1.35 1.41 1.45 1.42 1.40 1.38 1.39
1.14 1.22 1.28 1.31 1.28 1.27 1.27 1.25 1.25 1.27 1.29 1.30 1.29 1.25 1.22 1.24 1.22 1.20 1.19 1.13 1.13 1.13 1.08 1.03 1.01 1.00 1.02 1.00 1.00 1.07 1.12 1.17 1.21 1.26 1.28 1.38 1.41 1.35 1.32 1.29 1.30 1.32 1.29
1.09 1.21 1.29 1.29 1.28 1.25 1.25 1.25 1.24 1.25 1.26 1.24 1.23 1.24 1.24 1.23 1.21 1.18 1.14 1.11 1.12 1.11 1.05 0.96 0.93 0.92 1.00 1.02 1.08 1.15 1.19 1.23 1.29 1.31 1.30 1.31 1.33 1.30 1.24 1.20 1.20 1.19 1.21
1.08 1.19 1.27 1.33 1.32 1.32 1.31 1.30 1.31 1.31 1.28 1.25 1.23 1.23 1.23 1.18 1.17 1.16 1.15 1.15 1.11 1.08 1.02 0.87 0.78 0.76 0.91 0.99 1.06 1.16 1.22 1.27 1.29 1.29 1.30 1.26 1.24 1.17 1.14 1.12 1.07 1.06 1.08
1.13 1.15 1.19 1.28 1.33 1.38 1.37 1.38 1.36 1.35 1.34 1.31 1.27 1.26 1.25 1.23 1.21 1.20 1.20 1.20 1.18 1.13 1.02 0.86 0.72 0.68 0.79 0.99 1.05 1.12 1.19 1.25 1.29 1.27 1.22 1.21 1.15 1.11 1.07 1.06 0.98 0.92 0.94
1.11 1.14 1.13 1.16 1.23 1.26 1.28 1.29 1.30 1.29 1.29 1.28 1.27 1.27 1.25 1.23 1.23 1.23 1.18 1.23 1.23 1.20 1.09 0.92 0.76 0.68 0.70 0.99 1.03 1.13 1.16 1.22 1.23 1.27 1.23 1.21 1.19 1.08 0.96 0.93 0.87 0.86 0.83
0.98 1.03 1.08 1.04 1.09 1.17 1.23 1.28 1.29 1.30 1.28 1.30 1.30 1.28 1.26 1.23 1.23 1.23 1.20 1.24 1.26 1.23 1.16 1.02 0.84 0.75 0.71 0.92 1.05 1.09 1.14 1.18 1.19 1.17 1.19 1.23 1.19 1.08 0.97 0.87 0.87 0.84 0.81
0.89 0.97 1.08 1.16 1.20 1.25 1.27 1.28 1.28 1.27 1.28 1.29 1.29 1.28 1.28 1.28 1.26 1.26 1.23 1.25 1.23 1.23 1.21 1.08 0.94 0.86 0.78 0.78 1.05 1.09 1.10 1.14 1.13 1.13 1.16 1.17 1.17 1.09 0.93 0.83 0.84 0.86 0.85
0.92 1.01 1.09 1.19 1.26 1.28 1.26 1.27 1.27 1.28 1.27 1.27 1.28 1.31 1.31 1.31 1.28 1.26 1.22 1.25 1.26 1.26 1.22 1.14 1.00 0.91 0.81 0.79 0.91 1.04 1.13 1.14 1.11 1.10 1.11 1.12 1.10 1.05 0.94 0.84 0.85 0.85 0.84
0.94 1.03 1.13 1.17 1.20 1.28 1.30 1.24 1.24 1.21 1.24 1.24 1.29 1.33 1.33 1.32 1.31 1.32 1.34 1.32 1.28 1.25 1.22 1.15 1.03 0.94 0.88 0.86 0.89 0.99 1.10 1.14 1.13 1.12 1.09 1.05 1.03 1.02 0.97 0.88 0.86 0.83 0.85
0.97 1.09 1.19 1.24 1.16 1.17 1.18 1.22 1.23 1.25 1.28 1.32 1.38 1.43 1.46 1.41 1.35 1.36 1.34 1.33 1.29 1.32 1.28 1.23 1.12 0.95 0.94 0.94 0.96 1.00 1.05 1.10 1.12 1.11 1.08 1.03 1.01 0.98 0.94 0.88 0.87 0.86 0.84
1.04 1.12 1.21 1.24 1.28 1.29 1.21 1.23 1.30 1.36 1.37 1.42 1.47 1.49 1.48 1.45 1.39 1.37 1.34 1.31 1.29 1.33 1.33 1.27 1.18 1.07 0.95 0.98 0.98 1.01 1.03 1.06 1.08 1.09 1.08 1.04 0.99 0.98 0.97 0.97 0.90 0.89 0.88
1.05 1.18 1.23 1.28 1.31 1.27 1.28 1.27 1.33 1.35 1.40 1.42 1.48 1.55 1.54 1.52 1.49 1.45 1.41 1.34 1.31 1.35 1.29 1.31 1.23 1.14 1.00 1.03 1.02 1.06 1.05 1.05 1.04 1.04 1.06 1.04 1.02 1.02 0.99 0.95 0.94 0.91 0.90
1.08 1.17 1.29 1.31 1.32 1.30 1.28 1.31 1.37 1.39 1.45 1.51 1.53 1.58 1.59 1.58 1.56 1.50 1.42 1.38 1.36 1.43 1.40 1.37 1.25 1.18 1.05 1.04 1.06 1.08 1.12 1.09 1.08 1.08 1.04 1.00 1.02 1.03 1.01 0.96 0.96 0.97 0.95
1.06 1.15 1.21 1.26 1.29 1.34 1.39 1.42 1.41 1.45 1.49 1.49 1.48 1.43 1.45 1.43 1.49 1.48 1.45 1.45 1.45 1.40 1.43 1.36 1.30 1.23 1.17 1.04 1.10 1.14 1.14 1.09 1.10 1.10 1.09 1.05 1.04 1.04 1.02 0.98 0.96 0.98 0.96
1.07 1.18 1.22 1.27 1.33 1.39 1.40 1.43 1.43 1.39 1.36 1.33 1.23 1.18 1.20 1.23 1.30 1.39 1.44 1.38 1.37 1.34 1.36 1.36 1.31 1.28 1.19 1.18 1.09 1.12 1.14 1.13 1.13 1.15 1.11 1.10 1.06 1.05 1.04 0.98 0.93 0.95 0.98
1.08 1.15 1.23 1.25 1.34 1.39 1.34 1.29 1.25 1.19 1.19 1.18 1.10 1.12 1.15 1.12 1.16 1.22 1.26 1.21 1.06 1.00 1.05 1.18 1.23 1.18 1.15 1.21 1.13 1.06 1.08 1.14 1.07 1.13 1.11 1.09 1.06 1.04 1.01 0.95 0.91 0.92 0.94
1.06 1.16 1.26 1.34 1.40 1.40 1.37 1.30 1.20 1.11 1.09 1.01 0.94 0.98 1.05 1.02 1.00 1.03 1.07 1.04 1.02 0.99 0.98 0.98 1.08 1.09 1.11 1.18 1.00 1.00 0.87 0.90 0.99 1.01 1.00 1.06 1.03 1.02 0.95 0.92 0.90 0.88 0.88
1.07 1.18 1.28 1.34 1.35 1.35 1.25 1.04 0.88 0.85 0.82 0.78 0.77 0.82 0.88 0.91 0.92 0.93 0.95 0.97 1.02 0.96 0.92 0.96 1.01 0.99 1.05 1.04 1.08 0.91 0.80 0.70 0.85 0.98 0.95 0.94 0.93 0.92 0.95 0.93 0.87 0.86 0.84
1.06 1.20 1.24 1.24 1.20 1.03 0.81 0.71 0.66 0.60 0.57 0.63 0.67 0.71 0.70 0.73 0.75 0.81 0.84 0.87 0.89 0.90 0.90 0.90 1.02 1.04 1.00 0.92 1.02 1.05 0.97 0.89 0.73 0.74 0.88 0.80 0.87 0.85 0.86 0.94 0.90 0.84 0.83
1.02 1.04 1.06 0.98 0.78 0.73 0.70 0.69 0.64 0.60 0.63 0.66 0.66 0.63 0.63 0.61 0.63 0.67 0.73 0.76 0.79 0.81 0.81 0.91 0.89 0.97 0.92 0.89 0.88 0.91 0.91 0.86 0.83 0.71 0.65 0.73 0.75 0.81 0.84 0.84 0.88 0.89 0.86
0.85 0.80 0.77 0.73 0.69 0.69 0.67 0.67 0.62 0.62 0.65 0.65 0.64 0.63 0.59 0.62 0.63 0.64 0.69 0.72 0.76 0.79 0.82 0.83 0.86 0.87 0.90 0.89 0.90 0.92 0.86 0.80 0.77 0.76 0.72 0.73 0.72 0.77 0.80 0.81 0.80 0.84 0.83
Wind_Speed
4 6 8 9 10 10 9 8 7 6 4 3 2 2 3 3 4 4 4 4 5 5 5 6 5 5 4 4 4 4 4 4 4 4 4 3 3 3 3 3 3 3 3
5 7 9 9 9 10 9 9 8 6 5 4 3 3 3 4 4 3 4 4 4 5 5 5 5 5 4 4 4 4 4 4 4 4 4 4 4 4 4 3 3 3 3
6 8 8 9 10 10 10 9 8 7 6 4 3 3 3 3 3 3 3 4 4 5 5 5 5 5 5 5 4 4 4 4 4 4 4 4 4 4 4 4 3 3 3
6 6 7 8 9 10 10 9 8 8 7 5 4 3 3 3 3 3 4 4 4 5 5 5 5 5 5 5 5 5 5 5 5 5 5 5 4 4 4 4 4 4 3
6 5 6 7 9 9 10 9 9 8 7 6 5 4 4 4 4 4 4 5 5 5 5 5 6 6 6 6 6 6 6 6 6 6 5 4 4 4 4 4 4 4 4
5 4 5 7 8 9 9 9 9 9 8 7 7 6 5 5 5 5 5 6 6 6 6 6 7 7 7 7 7 7 6 6 6 6 5 5 5 5 5 5 5 5 5
4 4 5 6 7 8 8 9 9 9 9 9 8 8 7 7 7 7 8 7 8 8 8 8 8 8 8 8 7 6 6 6 6 6 5 6 6 6 6 6 6 6 6
4 4 5 6 6 7 8 8 8 9 10 10 10 10 10 10 10 10 10 10 10 10 11 11 11 11 10 8 7 7 7 7 7 6 6 7 7 7 7 7 6 6 6
4 4 4 6 6 7 8 9 9 10 11 12 12 12 13 13 13 13 13 13 13 13 13 13 13 13 12 11 10 9 8 8 8 8 8 8 8 8 8 8 8 7 6
6 6 6 6 7 8 9 10 11 12 13 13 14 15 15 15 15 15 16 16 15 16 15 16 16 16 15 14 12 11 10 10 9 8 9 8 8 8 9 9 8 7 6
6 7 8 8 9 10 10 11 12 13 14 15 16 16 17 18 18 18 18 18 18 18 18 18 18 18 18 17 15 14 13 12 12 11 10 9 9 9 9 9 8 8 7
8 9 9 10 10 11 12 12 13 14 15 16 17 18 19 19 20 20 20 21 21 21 21 21 20 21 21 20 18 17 16 15 14 13 12 12 11 11 10 9 9 9 8
9 9 10 11 12 13 14 14 15 16 17 18 19 19 20 21 21 22 23 23 23 23 23 23 23 23 22 22 22 19 19 18 17 16 15 14 13 13 12 11 10 10 9
12 12 12 13 14 14 15 16 16 17 18 19 20 21 21 22 23 23 23 24 24 25 25 25 24 24 24 24 23 23 22 21 20 18 18 17 16 14 13 13 13 12 11
12 12 12 12 13 14 16 17 17 18 19 20 20 21 22 23 24 25 26 26 26 25 25 25 25 26 25 25 25 25 24 23 22 21 20 19 18 17 16 15 15 14 14
13 13 12 13 13 15 16 17 18 19 19 20 21 23 24 25 26 27 27 28 28 27 27 26 26 27 27 27 26 26 26 26 25 23 22 21 21 19 18 18 17 17 16
15 15 15 14 14 15 16 17 18 19 21 22 24 25 27 28 29 30 30 30 30 29 29 29 28 28 28 28 29 28 28 27 27 26 24 24 23 21 21 20 19 19 18
16 16 16 15 15 15 16 17 18 20 21 23 25 27 29 32 32 33 33 32 32 33 33 33 32 31 31 31 31 30 30 29 28 27 26 25 25 24 22 22 22 21 20
17 16 16 16 17 18 18 19 20 21 22 24 27 29 31 33 34 35 35 35 36 37 37 37 36 35 34 34 33 33 32 31 31 30 29 27 26 25 25 23 23 24 23
18 17 17 17 17 17 18 19 21 22 24 27 29 31 32 33 35 36 37 37 38 38 38 39 39 38 38 37 35 34 34 33 33 32 30 29 28 27 26 25 25 24 25
17 18 18 18 18 18 18 19 21 23 27 29 30 32 33 34 35 35 36 37 36 36 37 39 39 40 39 36 33 33 32 31 32 33 33 31 29 29 28 27 26 25 25
18 19 19 19 18 19 20 22 24 26 28 29 32 33 35 36 36 37 38 37 37 38 38 38 38 38 39 38 35 34 34 33 34 34 34 32 32 31 30 28 27 27 27
18 18 18 18 19 20 22 23 25 26 29 31 34 37 38 39 40 40 40 40 40 40 39 38 38 38 37 38 38 36 34 34 33 36 36 35 34 32 33 30 28 28 29
16 16 16 17 19 21 22 24 26 28 32 35 37 40 41 41 42 41 41 41 40 40 38 39 38 38 38 37 38 40 39 36 34 34 36 37 37 35 34 35 32 31 31
15 16 17 18 21 23 25 27 30 33 36 39 41 42 42 42 41 40 40 39 38 38 38 38 37 38 38 39 39 37 39 39 39 39 39 38 39 38 37 35 34 33 32
17 18 20 22 24 26 28 30 33 36 39 42 42 43 42 41 40 40 39 38 37 37 36 36 37 37 38 40 39 41 41 41 40 39 39 40 40 40 41 39 38 36 35
Wind_Direction
227 194 189 191 195 196 197 197 199 202 207 217 240 282 310 324 335 340 345 351 355 356 354 357 0 357 350 345 343 341 340 342 344 340 342 318 329 320 318 315 310 316 322
215 196 196 199 198 198 199 202 204 209 214 224 243 280 299 312 322 328 334 339 344 348 344 346 350 353 349 343 342 336 335 340 343 337 331 325 323 318 306 302 304 304 309
194 191 202 201 201 201 202 203 204 206 212 219 234 267 287 295 302 312 319 322 324 332 337 337 334 335 336 338 331 326 320 323 328 328 325 322 316 319 304 294 297 296 294
188 195 201 202 201 201 203 205 207 209 212 218 229 253 270 283 295 300 303 309 308 315 317 321 320 318 322 324 320 312 307 303 310 317 319 319 313 316 311 299 293 296 295
188 194 196 194 197 199 200 203 206 209 213 219 233 246 260 277 278 284 291 302 304 303 303 309 312 310 311 311 311 307 303 298 293 301 309 311 307 308 311 305 300 290 283
181 186 190 191 195 199 201 206 211 216 221 227 236 245 259 267 272 275 282 287 291 293 294 299 302 303 302 302 303 301 296 289 286 291 296 298 302 305 304 298 291 287 283
173 180 184 186 192 197 203 210 216 223 228 234 241 249 257 265 273 275 277 282 284 284 285 288 292 296 297 295 296 296 297 285 280 286 286 290 294 300 305 298 294 286 285
182 189 197 201 204 207 213 220 226 232 237 242 246 251 259 266 269 272 273 275 278 279 281 282 284 285 284 284 283 283 285 285 276 277 280 287 289 294 297 296 295 290 284
211 214 219 221 221 223 227 232 238 243 246 249 252 255 261 267 268 271 271 272 276 275 277 278 280 280 276 276 274 272 273 276 273 274 274 282 286 285 290 289 290 289 282
236 239 241 238 236 238 241 244 247 250 252 255 258 261 263 268 269 272 272 272 274 275 276 277 277 276 272 269 270 265 266 265 268 273 273 281 281 283 288 283 281 278 277
250 248 250 248 247 248 250 252 254 256 258 259 262 264 265 268 270 272 271 272 273 274 274 275 274 273 272 266 263 261 260 262 263 265 270 273 276 283 287 278 273 270 271
261 258 255 255 255 253 255 258 260 261 262 265 267 268 269 270 271 273 273 273 272 273 273 273 272 271 269 265 261 257 258 258 260 262 264 268 272 277 281 274 268 266 265
269 265 262 262 261 259 260 262 265 266 268 269 270 270 271 272 273 275 275 274 273 272 272 271 270 270 268 264 261 258 256 257 257 260 262 265 267 273 273 269 265 261 262
270 268 269 267 266 264 263 265 267 270 272 273 273 272 273 274 275 276 276 276 275 272 271 270 269 268 267 265 261 257 256 255 256 256 259 261 265 267 268 263 261 260 260
270 268 270 269 270 268 267 269 271 273 273 274 274 274 275 276 276 276 277 277 276 274 272 270 268 266 265 265 261 258 256 255 255 255 257 259 261 262 262 260 259 257 258
266 265 269 270 274 275 274 272 272 273 275 276 277 278 277 279 278 277 277 277 276 273 272 271 270 267 266 263 262 259 257 256 255 254 255 256 257 259 260 259 257 256 256
266 264 265 270 275 278 275 275 276 277 277 279 279 281 281 281 279 278 277 277 274 272 271 270 271 268 266 263 261 259 257 256 255 254 254 254 255 256 258 258 256 256 255
264 264 265 269 272 278 279 280 280 279 281 283 284 284 283 282 281 280 278 277 275 271 270 272 270 268 266 262 259 258 256 256 254 253 254 254 254 254 257 259 255 254 255
260 260 265 269 272 277 284 287 286 285 287 289 289 289 287 285 283 281 281 279 276 274 272 271 269 269 264 262 259 258 255 255 254 253 254 255 253 253 255 257 256 253 255
259 261 265 272 275 281 285 289 289 289 291 294 296 294 292 288 285 283 283 282 280 277 274 271 269 268 268 253 262 258 255 255 254 252 253 254 253 252 254 255 255 255 255
259 262 267 271 274 279 283 290 289 292 295 297 298 297 295 293 289 286 284 284 282 279 276 273 271 268 267 269 264 262 254 255 256 250 253 253 253 252 254 254 254 253 253
262 267 269 272 275 281 286 292 294 295 297 299 301 299 297 295 292 288 285 283 282 280 277 274 271 269 265 261 262 261 260 261 255 253 252 250 254 253 252 253 252 252 252
268 268 267 270 276 283 288 292 295 297 301 302 301 301 298 296 292 289 286 284 282 280 277 273 271 268 266 262 258 259 259 260 255 258 249 251 252 253 250 252 252 253 254
271 267 268 272 278 284 288 291 293 295 299 302 303 302 300 297 294 290 287 284 282 280 275 274 271 267 264 263 260 257 259 258 258 255 254 253 252 254 254 251 251 254 253
269 269 271 277 282 286 288 289 292 295 299 302 303 301 300 298 294 291 288 286 283 280 277 273 271 267 264 262 259 260 258 258 259 257 255 254 254 253 253 251 251 254 252
270 270 274 277 282 285 288 290 292 296 299 302 302 300 299 297 295 291 288 286 283 281 278 275 274 269 268 263 261 260 258 258 257 257 259 252 253 252 253 252 252 252 254